GW4212 Weather Reports


time (UTC)temp
C
wind
direction
speed
KPH
gust
KPH
rain 1hr
cm
rain 24hr
cm
rain mn
cm
humidity
%
barometer
mb
20260508122706 21 0.0 0.0 0.00 0.00 0.00 99 1014.4
20260508121700 21 0.0 0.0 0.00 0.00 0.00 99 1014.5
20260508120642 20 0.0 0.0 0.00 0.00 0.00 99 1014.6
20260508115631 18 0.0 0.0 0.00 0.00 0.00 99 1014.9
20260508114620 18 0.0 0.0 0.00 0.00 0.00 99 1014.9
20260508113609 18 0.0 0.0 0.00 0.00 0.00 99 1014.8
20260508112451 18 0.0 0.0 0.00 0.00 0.00 99 1014.8
20260508111446 18 0.0 0.0 0.00 0.00 0.00 99 1014.4
20260508110227 17 0.0 0.0 0.00 0.00 0.00 99 1014.5
20260508105215 18 0.0 0.0 0.00 0.00 0.00 99 1014.2
20260508104205 18 0.0 0.0 0.00 0.00 0.00 99 1014.3
20260508103153 20 0.0 0.0 0.00 0.00 0.00 99 1014.8
20260508102143 20 0.0 0.0 0.00 0.00 0.00 99 1014.9
20260508101136 20 0.0 0.0 0.00 0.00 0.00 99 1014.7
20260508100120 19 0.0 0.0 0.00 0.00 0.00 99 1014.4
20260508095108 19 0.0 0.0 0.00 0.00 0.00 99 1014.5
20260508094058 20 0.0 0.0 0.00 0.00 0.00 99 1014.4
20260508093046 20 0.0 0.0 0.00 0.00 0.00 99 1014.3
20260508092035 20 0.0 0.0 0.00 0.00 0.00 99 1014.4
20260508090923 21 0.0 0.0 0.00 0.00 0.00 99 1014.5
20260508085905 21 0.0 0.0 0.00 0.00 0.00 99 1014.7
20260508084752 20 0.0 0.0 0.00 0.00 0.00 99 1014.4
20260508083741 21 0.0 0.0 0.00 0.00 0.00 99 1014.2
20260508082731 21 0.0 0.0 0.00 0.00 0.00 99 1014.1
20260508081719 22 0.0 0.0 0.00 0.00 0.00 99 1013.7
20260508080713 23 0.0 0.0 0.00 0.00 0.00 99 1013.9
20260508075657 20 0.0 0.0 0.00 0.00 0.00 99 1013.9
20260508074545 24 0.0 0.0 0.00 0.00 0.00 99 1013.8
20260508073533 23 0.0 0.0 0.00 0.00 0.00 99 1013.8
20260508072522 20 0.0 0.0 0.00 0.00 0.00 99 1013.7
20260508071410 21 0.0 0.0 0.00 0.00 0.00 99 1013.6
20260508070405 21 0.0 0.0 0.00 0.00 0.00 99 1013.6
20260508065348 17 0.0 0.0 0.00 0.00 0.00 99 1013.6
20260508064230 17 0.0 0.0 0.00 0.00 0.00 99 1013.4
20260508063219 17 0.0 0.0 0.00 0.00 0.00 99 1013.5
20260508062207 16 0.0 0.0 0.00 0.00 0.00 99 1013.6
20260508061156 16 0.0 0.0 0.00 0.00 0.00 99 1013.6
20260508060150 17 0.0 0.0 0.00 0.00 0.00 99 1013.2
20260508055134 16 0.0 0.0 0.00 0.00 0.00 99 1013.1
20260508054123 15 0.0 0.0 0.00 0.00 0.00 99 1013.0
20260508053005 15 0.0 0.0 0.00 0.00 0.00 99 1013.2
20260508051953 15 0.0 0.0 0.00 0.00 0.00 99 1013.0
20260508050942 15 0.0 0.0 0.00 0.00 0.00 99 1012.8
20260508045937 15 0.0 0.0 0.00 0.00 0.00 99 1012.6
20260508044920 15 0.0 0.0 0.00 0.00 0.00 99 1012.4
20260508043908 15 0.0 0.0 0.00 0.00 0.00 99 1012.3
20260508042857 15 0.0 0.0 0.00 0.00 0.00 99 1012.4
20260508041846 15 0.0 0.0 0.00 0.00 0.00 99 1012.4
20260508040835 15 0.0 0.0 0.00 0.00 0.00 99 1012.2
20260508035828 15 0.0 0.0 0.00 0.00 0.00 99 1012.2
20260508034811 15 0.0 0.0 0.00 0.00 0.00 99 1012.5
20260508033801 15 0.0 0.0 0.00 0.00 0.00 99 1012.5
20260508032749 15 0.0 0.0 0.00 0.00 0.00 99 1012.5
20260508031737 15 0.0 0.0 0.00 0.00 0.00 99 1012.5
20260508030726 15 0.0 0.0 0.00 0.00 0.00 99 1012.7
20260508025731 15 0.0 0.0 0.00 0.00 0.00 99 1012.6
20260508021804 15 0.0 0.0 0.00 0.00 0.00 99 1012.6
20260508020754 15 0.0 0.0 0.00 0.00 0.00 99 1012.8
20260508015637 15 0.0 0.0 0.00 0.00 0.00 99 1012.8
20260508014625 15 0.0 0.0 0.00 0.00 0.00 99 1012.9
20260508013618 16 0.0 0.0 0.00 0.00 0.00 99 1012.9
20260508012603 15 0.0 0.0 0.00 0.00 0.00 99 1013.1
20260508011551 15 0.0 0.0 0.00 0.00 0.00 99 1013.3
20260508010539 15 0.0 0.0 0.00 0.00 0.00 99 1013.5
20260508005529 15 0.0 0.0 0.00 0.00 0.00 99 1013.7
20260508004517 15 0.0 0.0 0.00 0.00 0.00 99 1013.6
20260508003511 15 0.0 0.0 0.00 0.00 0.00 99 1013.6
20260508002454 15 0.0 0.0 0.00 0.00 0.00 99 1013.6
20260508001443 16 0.0 0.0 0.00 0.00 0.00 99 1013.6
20260508000415 16 0.0 0.0 0.00 0.00 0.00 99 1013.5
20260507235403 16 0.0 0.0 0.00 0.00 0.00 99 1013.6
20260507234353 16 0.0 0.0 0.00 0.00 0.00 99 1013.7
20260507233346 16 0.0 0.0 0.00 0.00 0.00 99 1013.7
20260507232329 16 0.0 0.0 0.00 0.00 0.00 99 1013.6
20260507231301 16 0.0 0.0 0.00 0.00 0.00 99 1013.6
20260507230250 16 0.0 0.0 0.00 0.00 0.00 99 1013.8
20260507225238 16 0.0 0.0 0.00 0.00 0.00 99 1013.8
20260507224226 16 0.0 0.0 0.00 0.00 0.00 99 1013.9
20260507223221 16 0.0 0.0 0.00 0.00 0.00 99 1013.8
20260507222205 16 0.0 0.0 0.00 0.00 0.00 99 1013.8
20260507221152 15 0.0 0.0 0.00 0.00 0.00 99 1013.8
20260507220142 16 0.0 0.0 0.00 0.00 0.00 99 1013.9
20260507215130 15 0.0 0.0 0.00 0.00 0.00 99 1014.0
20260507214120 15 0.0 0.0 0.00 0.00 0.00 99 1014.2
20260507213007 16 0.0 0.0 0.00 0.00 0.00 99 1014.3
20260507211950 16 0.0 0.0 0.00 0.00 0.00 99 1014.2
20260507210939 15 0.0 0.0 0.00 0.00 0.00 99 1014.0
20260507205927 16 0.0 0.0 0.00 0.00 0.00 99 1014.0
20260507204916 15 0.0 0.0 0.00 0.00 0.00 99 1013.8
20260507203905 15 0.0 0.0 0.00 0.00 0.00 99 1013.5
20260507202858 16 0.0 0.0 0.00 0.00 0.00 99 1013.5
20260507201843 16 0.0 0.0 0.00 0.00 0.00 99 1013.4
20260507200833 16 0.0 0.0 0.00 0.00 0.00 99 1013.3
20260507195714 16 0.0 0.0 0.00 0.00 0.00 99 1013.4
20260507194703 16 0.0 0.0 0.00 0.00 0.00 99 1013.4
20260507193652 15 0.0 0.0 0.00 0.00 0.00 99 1013.5
20260507192545 15 0.0 0.0 0.00 0.00 0.00 99 1013.4
20260507191511 16 0.0 0.0 0.00 0.00 0.00 99 1013.4
20260507190500 16 0.0 0.0 0.00 0.00 0.00 99 1013.3
20260507185450 16 0.0 0.0 0.00 0.00 0.00 99 1013.3
20260507184438 15 0.0 0.0 0.00 0.00 0.00 99 1013.4
20260507183427 15 0.0 0.0 0.00 0.00 0.00 99 1013.4
20260507182422 15 0.0 0.0 0.00 0.00 0.00 99 1013.4
20260507181404 15 0.0 0.0 0.00 0.00 0.00 99 1013.3
20260507180251 16 0.0 0.0 0.00 0.00 0.00 99 1013.0
20260507175241 16 0.0 0.0 0.00 0.00 0.00 99 1012.8
20260507174230 15 0.0 0.0 0.00 0.00 0.00 99 1012.7
20260507173218 15 0.0 0.0 0.00 0.00 0.00 99 1012.7
20260507172212 15 0.0 0.0 0.00 0.00 0.00 99 1012.3
20260507171156 15 0.0 0.0 0.00 0.00 0.00 99 1012.3
20260507170044 16 0.0 0.0 0.00 0.00 0.00 99 1012.0
20260507165033 16 0.0 0.0 0.00 0.00 0.00 99 1011.9
20260507164022 16 0.0 0.0 0.00 0.00 0.00 99 1012.0
20260507163010 16 0.0 0.0 0.00 0.00 0.00 99 1011.7
20260507162005 16 0.0 0.0 0.00 0.00 0.00 99 1011.9
20260507160948 16 0.0 0.0 0.00 0.00 0.00 99 1011.5
20260507155936 16 0.0 0.0 0.00 0.00 0.00 99 1011.5
20260507154925 17 0.0 0.0 0.00 0.00 0.00 99 1010.9
20260507153913 18 0.0 0.0 0.00 0.00 0.00 99 1010.9
20260507152845 18 0.0 0.0 0.00 0.00 0.00 99 1010.8
20260507151840 18 0.0 0.0 0.00 0.00 0.00 99 1010.7
20260507150823 19 0.0 0.0 0.00 0.00 0.00 99 1010.7
20260507145811 19 0.0 0.0 0.00 0.00 0.00 99 1010.7
20260507144743 19 0.0 0.0 0.00 0.00 0.00 99 1010.7
20260507143731 20 0.0 0.0 0.00 0.00 0.00 99 1010.8
20260507142720 19 0.0 0.0 0.00 0.00 0.00 99 1010.9
20260507141714 19 0.0 0.0 0.00 0.00 0.00 99 1011.1
20260507140658 19 0.0 0.0 0.00 0.00 0.00 99 1011.1
20260507135646 19 0.0 0.0 0.00 0.00 0.00 99 1011.3
20260507134636 20 0.0 0.0 0.00 0.00 0.00 99 1011.2
20260507133624 20 0.0 0.0 0.00 0.00 0.00 99 1011.3
20260507132613 20 0.0 0.0 0.00 0.00 0.00 99 1011.4
20260507131608 20 0.0 0.0 0.00 0.00 0.00 99 1011.6
20260507130551 20 0.0 0.0 0.00 0.00 0.00 99 1011.7
20260507125540 20 0.0 0.0 0.00 0.00 0.00 99 1011.8
20260507124512 20 0.0 0.0 0.00 0.00 0.00 99 1011.9
20260507123501 20 0.0 0.0 0.00 0.00 0.00 99 1012.0